This is the latest recevied weather packets stored in our database for station/object YC0TBU-3. If no packets are shown the sender has not sent any weather packets the latest 10 day(s).
| Time | Temp. | Humidity | Pressure | Rain* | Wind** | Luminosity | Snow |
|---|---|---|---|---|---|---|---|
| 1776935929 | 26.67° C | 50% | 1009.5 hPa | - | - | - | - |
| 1776935224 | 26.67° C | 50% | 1009.2 hPa | - | - | - | - |
| 1776934519 | 26.67° C | 50% | 1009.7 hPa | - | - | - | - |
| 1776933814 | 26.11° C | 51% | 1009.1 hPa | - | - | - | - |
| 1776933109 | 26.67° C | 50% | 1009.1 hPa | - | - | - | - |
| 1776932403 | 26.11° C | 50% | 1009.4 hPa | - | - | - | - |
| 1776931699 | 26.67° C | 50% | 1010.7 hPa | - | - | - | - |
| 1776930994 | 26.11° C | 50% | 1010 hPa | - | - | - | - |
| 1776930288 | 26.11° C | 49% | 1010 hPa | - | - | - | - |
| 1776929583 | 25.56° C | 48% | 1009.6 hPa | - | - | - | - |
| 1776928878 | 25° C | 48% | 1012.2 hPa | - | - | - | - |
| 1776928174 | 24.44° C | 48% | 1011.9 hPa | - | - | - | - |
| 1776927468 | 24.44° C | 48% | 1010.9 hPa | - | - | - | - |
| 1776926764 | 24.44° C | 48% | 1009.8 hPa | - | - | - | - |
| 1776926058 | 24.44° C | 49% | 1009.9 hPa | - | - | - | - |
| 1776925354 | 25° C | 48% | 1010.5 hPa | - | - | - | - |
| 1776924648 | 25.56° C | 48% | 1011 hPa | - | - | - | - |
| 1776923944 | 26.11° C | 48% | 1012.5 hPa | - | - | - | - |
| 1776923238 | 26.67° C | 50% | 1010.7 hPa | - | - | - | - |
| 1776922534 | 26.67° C | 51% | 1013.4 hPa | - | - | - | - |
| 1776921828 | 26.11° C | 51% | 1012.1 hPa | - | - | - | - |
| 1776921123 | 26.11° C | 51% | 1010.7 hPa | - | - | - | - |
| 1776920418 | 26.11° C | 51% | 1012 hPa | - | - | - | - |
| 1776919713 | 26.11° C | 52% | 1010.4 hPa | - | - | - | - |
* Rain since midnight (hover to see other rain measurements)
** Current wind speed in m/s (hover to see current wind gust speed)